VOI5557 MMHO-MMMY

Flight info

Callsign VOI5557
Flight time N/A
Altitude 37000
Route HMO5B HMO DCT IGTAN DCT SUTIL DCT ETLEP DCT SLW SLW1C
Aircraft A320/M-SDE3FGHIRWY/LB1

Departure

Time 2026-04-20 01:57
Airport General Ignacio L. Pesqueira International Airport (MMHO)

Arrival

Time N/A
Airport Monterrey International Airport (MMMY)
Time Latitude Longitude Altitude Speed Heading
2026-04-20 01:40 29.09051 -111.05244 641 ft 0 kts 147°
2026-04-20 01:49 29.09053 -111.05245 641 ft 1 kts 147°
2026-04-20 01:49 29.09067 -111.05255 641 ft 3 kts 144°
2026-04-20 01:50 29.09083 -111.05269 641 ft 3 kts 139°
2026-04-20 01:50 29.09097 -111.05285 641 ft 3 kts 128°
2026-04-20 01:50 29.09107 -111.05304 641 ft 3 kts 98°
2026-04-20 01:50 29.09107 -111.05319 641 ft 1 kts 60°
2026-04-20 01:51 29.09104 -111.05323 641 ft 0 kts 60°
2026-04-20 01:52 29.09105 -111.05322 641 ft 1 kts 60°
2026-04-20 01:53 29.09126 -111.05281 641 ft 12 kts 58°
2026-04-20 01:53 29.09188 -111.05166 641 ft 19 kts 58°
2026-04-20 01:53 29.09262 -111.05028 641 ft 21 kts 58°
2026-04-20 01:53 29.09336 -111.04888 641 ft 13 kts 59°
2026-04-20 01:54 29.09368 -111.04784 641 ft 15 kts 93°
2026-04-20 01:54 29.09364 -111.04676 641 ft 10 kts 91°
2026-04-20 01:54 29.09405 -111.04602 641 ft 15 kts 46°
2026-04-20 01:54 29.09478 -111.04494 641 ft 18 kts 54°
2026-04-20 01:55 29.09556 -111.04371 641 ft 18 kts 53°
2026-04-20 01:55 29.09635 -111.04250 641 ft 20 kts 54°
2026-04-20 01:55 29.09692 -111.04165 641 ft 9 kts 35°
2026-04-20 01:55 29.09748 -111.04183 641 ft 10 kts 333°
2026-04-20 01:56 29.09815 -111.04228 641 ft 12 kts 330°
2026-04-20 01:56 29.09857 -111.04262 641 ft 1 kts 269°
2026-04-20 01:56 29.09852 -111.04274 641 ft 3 kts 242°
2026-04-20 01:56 29.09809 -111.04365 641 ft 40 kts 242°
2026-04-20 01:57 29.09513 -111.04916 642 ft 120 kts 238°
2026-04-20 01:57 29.08978 -111.05905 881 ft 154 kts 238°
2026-04-20 01:57 29.08301 -111.06835 1610 ft 158 kts 216°
2026-04-20 01:57 29.07238 -111.07251 2221 ft 170 kts 182°
2026-04-20 01:58 29.06041 -111.06930 2742 ft 186 kts 151°
2026-04-20 01:58 29.05006 -111.05971 3139 ft 199 kts 127°
2026-04-20 01:58 29.04528 -111.04438 3451 ft 218 kts 92°
2026-04-20 01:58 29.04608 -111.02667 3930 ft 233 kts 85°
2026-04-20 01:59 29.04726 -111.00759 4477 ft 247 kts 87°
2026-04-20 01:59 29.04714 -110.98729 5042 ft 262 kts 90°
2026-04-20 01:59 29.04642 -110.96614 5750 ft 269 kts 89°
2026-04-20 01:59 29.04591 -110.94454 6546 ft 273 kts 87°
2026-04-20 02:00 29.04565 -110.92299 7309 ft 277 kts 86°
2026-04-20 02:00 29.04536 -110.90082 8049 ft 281 kts 86°
2026-04-20 02:00 29.04502 -110.87827 8768 ft 286 kts 87°
2026-04-20 02:00 29.04465 -110.85526 9471 ft 291 kts 87°
2026-04-20 02:01 29.04430 -110.83192 10158 ft 296 kts 87°
2026-04-20 02:01 29.04397 -110.80798 10660 ft 308 kts 87°
2026-04-20 02:01 29.04365 -110.78275 10922 ft 328 kts 87°
2026-04-20 02:01 29.04328 -110.75590 11147 ft 346 kts 88°
2026-04-20 02:02 29.04287 -110.72805 11360 ft 364 kts 88°
2026-04-20 02:02 29.04237 -110.69847 11597 ft 379 kts 88°
2026-04-20 02:02 29.04185 -110.66770 11850 ft 393 kts 88°
2026-04-20 02:02 29.04132 -110.63591 12060 ft 406 kts 88°
2026-04-20 02:03 29.04079 -110.60301 12348 ft 416 kts 89°
2026-04-20 02:03 29.04025 -110.56988 12828 ft 419 kts 89°
2026-04-20 02:03 29.03968 -110.53671 13289 ft 423 kts 89°
2026-04-20 02:03 29.03910 -110.50290 13740 ft 427 kts 89°
2026-04-20 02:04 29.03849 -110.46885 14182 ft 430 kts 89°
2026-04-20 02:04 29.03789 -110.43451 14614 ft 434 kts 89°
2026-04-20 02:04 29.03728 -110.39986 15038 ft 437 kts 89°
2026-04-20 02:04 29.03667 -110.36507 15454 ft 440 kts 90°
2026-04-20 02:05 29.03604 -110.32982 15863 ft 443 kts 90°
2026-04-20 02:05 29.03540 -110.29444 16342 ft 448 kts 90°
2026-04-20 02:05 29.03481 -110.25862 16719 ft 451 kts 90°
2026-04-20 02:05 29.03409 -110.22265 17130 ft 454 kts 90°
2026-04-20 02:06 29.03331 -110.18680 17505 ft 456 kts 90°
2026-04-20 02:06 29.03254 -110.15053 17875 ft 459 kts 91°
2026-04-20 02:06 29.03181 -110.11388 18244 ft 462 kts 91°
2026-04-20 02:06 29.03110 -110.07705 18606 ft 464 kts 91°
2026-04-20 02:07 29.03038 -110.04001 18959 ft 467 kts 91°
2026-04-20 02:07 29.02963 -110.00302 19306 ft 470 kts 91°
2026-04-20 02:07 29.02884 -109.96566 19654 ft 472 kts 91°
2026-04-20 02:07 29.02707 -109.92803 19986 ft 475 kts 97°
2026-04-20 02:08 29.01998 -109.89118 20319 ft 476 kts 109°
2026-04-20 02:08 29.00800 -109.85580 20658 ft 477 kts 114°
2026-04-20 02:08 28.99466 -109.82103 20973 ft 479 kts 115°
2026-04-20 02:08 28.98095 -109.78629 21284 ft 481 kts 115°
2026-04-20 02:09 28.96751 -109.75147 21592 ft 483 kts 114°
2026-04-20 02:09 28.95442 -109.71600 21898 ft 485 kts 114°
2026-04-20 02:09 28.94161 -109.68022 22202 ft 488 kts 113°
2026-04-20 02:09 28.93309 -109.65635 22400 ft 489 kts 113°
2026-04-20 02:10 28.91569 -109.60862 22783 ft 491 kts 114°
2026-04-20 02:10 28.90663 -109.58430 22972 ft 493 kts 114°
2026-04-20 02:10 28.89319 -109.54858 23244 ft 495 kts 114°
2026-04-20 02:10 28.87962 -109.51242 23512 ft 496 kts 114°
2026-04-20 02:11 28.86612 -109.47610 23771 ft 498 kts 114°
2026-04-20 02:11 28.85256 -109.43939 24019 ft 500 kts 114°
2026-04-20 02:11 28.83908 -109.40281 24258 ft 502 kts 114°
2026-04-20 02:11 28.82546 -109.36606 24489 ft 504 kts 114°
2026-04-20 02:12 28.81170 -109.32920 24712 ft 505 kts 114°
2026-04-20 02:12 28.79784 -109.29227 25020 ft 504 kts 114°
2026-04-20 02:12 28.78423 -109.25591 25315 ft 504 kts 114°
2026-04-20 02:12 28.77056 -109.21919 25614 ft 503 kts 114°
2026-04-20 02:13 28.75687 -109.18246 25909 ft 503 kts 114°
2026-04-20 02:13 28.74314 -109.14575 26207 ft 502 kts 114°
2026-04-20 02:13 28.72944 -109.10914 26506 ft 501 kts 114°
2026-04-20 02:13 28.71574 -109.07263 26811 ft 501 kts 114°
2026-04-20 02:14 28.70204 -109.03613 27116 ft 500 kts 114°
2026-04-20 02:14 28.68835 -108.99970 27422 ft 500 kts 114°
2026-04-20 02:14 28.67482 -108.96382 27730 ft 499 kts 114°
2026-04-20 02:14 28.66111 -108.92737 28036 ft 498 kts 114°
2026-04-20 02:15 28.64749 -108.89115 28340 ft 498 kts 114°
2026-04-20 02:15 28.63384 -108.85491 28644 ft 497 kts 114°
2026-04-20 02:15 28.62023 -108.81884 28950 ft 496 kts 114°
2026-04-20 02:15 28.60653 -108.78263 29260 ft 496 kts 114°
2026-04-20 02:16 28.59284 -108.74651 29558 ft 495 kts 114°
2026-04-20 02:16 28.57939 -108.71103 29855 ft 495 kts 114°
2026-04-20 02:16 28.56583 -108.67519 30159 ft 494 kts 114°
2026-04-20 02:16 28.55219 -108.63918 30459 ft 493 kts 114°
2026-04-20 02:17 28.53857 -108.60330 30746 ft 493 kts 114°
2026-04-20 02:17 28.52493 -108.56743 31029 ft 492 kts 114°
2026-04-20 02:17 28.51136 -108.53177 31312 ft 492 kts 114°
2026-04-20 02:17 28.49776 -108.49610 31600 ft 491 kts 115°
2026-04-20 02:18 28.48418 -108.46046 31894 ft 490 kts 114°
2026-04-20 02:18 28.47074 -108.42526 32178 ft 490 kts 115°
2026-04-20 02:18 28.45717 -108.38971 32458 ft 489 kts 115°
2026-04-20 02:18 28.44359 -108.35419 32742 ft 489 kts 115°
2026-04-20 02:19 28.43001 -108.31864 33019 ft 488 kts 115°
2026-04-20 02:19 28.41664 -108.28367 33282 ft 488 kts 115°
2026-04-20 02:19 28.40315 -108.24847 33545 ft 487 kts 115°
2026-04-20 02:19 28.38959 -108.21313 33798 ft 486 kts 115°
2026-04-20 02:20 28.37602 -108.17782 34044 ft 486 kts 115°
2026-04-20 02:20 28.36244 -108.14252 34275 ft 486 kts 115°
2026-04-20 02:20 28.34907 -108.10782 34518 ft 485 kts 115°
2026-04-20 02:20 28.33541 -108.07236 34761 ft 484 kts 115°
2026-04-20 02:21 28.30852 -108.00264 35205 ft 483 kts 115°
2026-04-20 02:21 28.29504 -107.96772 35417 ft 483 kts 115°
2026-04-20 02:21 28.28158 -107.93282 35619 ft 482 kts 115°
2026-04-20 02:22 28.26815 -107.89801 35785 ft 482 kts 115°
2026-04-20 02:22 28.25464 -107.86313 35948 ft 482 kts 115°
2026-04-20 02:22 28.24110 -107.82823 36110 ft 481 kts 115°
2026-04-20 02:22 28.22765 -107.79356 36265 ft 481 kts 115°
2026-04-20 02:23 28.21411 -107.75873 36409 ft 481 kts 115°
2026-04-20 02:23 28.20062 -107.72413 36545 ft 481 kts 115°
2026-04-20 02:23 28.18727 -107.68988 36689 ft 481 kts 115°
2026-04-20 02:23 28.17378 -107.65517 36830 ft 481 kts 115°
2026-04-20 02:24 28.16030 -107.62047 36972 ft 481 kts 115°
2026-04-20 02:24 28.13329 -107.55111 37005 ft 480 kts 115°
2026-04-20 02:25 28.10625 -107.48201 37008 ft 480 kts 115°
2026-04-20 02:25 28.07920 -107.41285 37008 ft 480 kts 115°
2026-04-20 02:26 28.05205 -107.34362 37008 ft 480 kts 115°
2026-04-20 02:26 28.02501 -107.27495 37019 ft 480 kts 115°
2026-04-20 02:27 27.99778 -107.20575 37021 ft 480 kts 115°
2026-04-20 02:27 27.97075 -107.13713 37037 ft 480 kts 115°
2026-04-20 02:28 27.94346 -107.06808 37042 ft 480 kts 115°
2026-04-20 02:28 27.91626 -106.99935 37042 ft 480 kts 115°
2026-04-20 02:29 27.88886 -106.93026 37042 ft 480 kts 115°
2026-04-20 02:29 27.86145 -106.86131 37041 ft 480 kts 116°
2026-04-20 02:30 27.83253 -106.79392 37033 ft 479 kts 117°
2026-04-20 02:30 27.80308 -106.72624 37031 ft 479 kts 117°
2026-04-20 02:31 27.77390 -106.65883 37032 ft 479 kts 117°
2026-04-20 02:31 27.74448 -106.59113 37040 ft 479 kts 117°
2026-04-20 02:32 27.71515 -106.52352 37041 ft 480 kts 117°
2026-04-20 02:32 27.68570 -106.45588 37040 ft 480 kts 117°
2026-04-20 02:33 27.65617 -106.38825 37026 ft 480 kts 117°
2026-04-20 02:33 27.62686 -106.32111 37027 ft 480 kts 117°
2026-04-20 02:34 27.59721 -106.25343 37029 ft 480 kts 117°
2026-04-20 02:34 27.56765 -106.18603 37043 ft 480 kts 117°
2026-04-20 02:35 27.53822 -106.11895 37040 ft 480 kts 117°
2026-04-20 02:35 27.50852 -106.05143 37041 ft 480 kts 117°
2026-04-20 02:36 27.47872 -105.98377 37044 ft 480 kts 117°
2026-04-20 02:36 27.44919 -105.91687 37043 ft 480 kts 118°
2026-04-20 02:37 27.41940 -105.84950 37039 ft 480 kts 118°
2026-04-20 02:37 27.38958 -105.78214 37041 ft 480 kts 118°
2026-04-20 02:38 27.35994 -105.71521 37043 ft 480 kts 118°
2026-04-20 02:38 27.33007 -105.64801 37044 ft 480 kts 118°
2026-04-20 02:39 27.30032 -105.58115 37042 ft 480 kts 118°
2026-04-20 02:39 27.27044 -105.51402 37039 ft 480 kts 118°
2026-04-20 02:40 27.24044 -105.44681 37041 ft 480 kts 118°
2026-04-20 02:40 27.21041 -105.37979 37041 ft 480 kts 118°
2026-04-20 02:41 27.18060 -105.31311 37042 ft 480 kts 118°
2026-04-20 02:41 27.15060 -105.24615 37042 ft 480 kts 118°
2026-04-20 02:42 27.12053 -105.17917 37044 ft 480 kts 118°
2026-04-20 02:42 27.09034 -105.11214 37044 ft 480 kts 118°
2026-04-20 02:43 27.06040 -105.04566 37042 ft 480 kts 118°
2026-04-20 02:43 27.03022 -104.97881 37043 ft 480 kts 118°
2026-04-20 02:44 27.00001 -104.91197 37043 ft 479 kts 118°
2026-04-20 02:44 26.96998 -104.84556 37042 ft 479 kts 118°
2026-04-20 02:45 26.93968 -104.77877 37040 ft 479 kts 118°
2026-04-20 02:45 26.90954 -104.71243 37041 ft 480 kts 118°
2026-04-20 02:46 26.87925 -104.64584 37041 ft 480 kts 118°
2026-04-20 02:46 26.84884 -104.57911 37040 ft 480 kts 118°
2026-04-20 02:47 26.81866 -104.51293 37040 ft 480 kts 118°
2026-04-20 02:47 26.78823 -104.44632 37041 ft 480 kts 118°
2026-04-20 02:48 26.75788 -104.38013 37042 ft 479 kts 118°
2026-04-20 02:48 26.72971 -104.31236 37039 ft 480 kts 112°
2026-04-20 02:49 26.70626 -104.24217 37038 ft 481 kts 111°
2026-04-20 02:49 26.68330 -104.17227 37041 ft 481 kts 111°
2026-04-20 02:50 26.65951 -104.10223 37041 ft 481 kts 112°
2026-04-20 02:50 26.63594 -104.03268 37041 ft 481 kts 111°
2026-04-20 02:51 26.61244 -103.96266 37043 ft 481 kts 111°
2026-04-20 02:51 26.58876 -103.89265 37042 ft 481 kts 112°
2026-04-20 02:52 26.56499 -103.82272 37042 ft 481 kts 112°
2026-04-20 02:52 26.54148 -103.75339 37043 ft 481 kts 112°
2026-04-20 02:53 26.51771 -103.68352 37043 ft 481 kts 112°
2026-04-20 02:53 26.49391 -103.61373 37043 ft 481 kts 112°
2026-04-20 02:54 26.47005 -103.54383 37044 ft 481 kts 112°
2026-04-20 02:54 26.44621 -103.47415 37045 ft 481 kts 112°
2026-04-20 02:55 26.42245 -103.40482 37025 ft 481 kts 112°
2026-04-20 02:55 26.39849 -103.33505 36990 ft 481 kts 112°
2026-04-20 02:56 26.37860 -103.27705 36976 ft 481 kts 112°
2026-04-20 02:56 26.35065 -103.19591 36971 ft 481 kts 112°
2026-04-20 02:57 26.33061 -103.13793 36994 ft 481 kts 112°
2026-04-20 02:57 26.30651 -103.06815 37013 ft 481 kts 112°
2026-04-20 02:58 26.28237 -102.99860 37009 ft 481 kts 112°
2026-04-20 02:58 26.25838 -102.92935 37020 ft 481 kts 112°
2026-04-20 02:59 26.23418 -102.85970 37041 ft 481 kts 112°
2026-04-20 02:59 26.21001 -102.79044 37040 ft 481 kts 112°
2026-04-20 03:00 26.18579 -102.72090 37040 ft 482 kts 112°
2026-04-20 03:00 26.16150 -102.65135 37040 ft 481 kts 112°
2026-04-20 03:01 26.13713 -102.58189 37042 ft 481 kts 112°
2026-04-20 03:01 26.11286 -102.51247 37042 ft 481 kts 112°
2026-04-20 03:02 26.08859 -102.44345 37043 ft 481 kts 112°
2026-04-20 03:02 26.06418 -102.37417 37041 ft 481 kts 112°
2026-04-20 03:03 26.03977 -102.30483 37042 ft 480 kts 112°
2026-04-20 03:03 26.01531 -102.23557 37043 ft 481 kts 112°
2026-04-20 03:04 25.99093 -102.16669 37040 ft 481 kts 112°
2026-04-20 03:04 25.96638 -102.09749 37014 ft 480 kts 112°
2026-04-20 03:05 25.94183 -102.02836 36764 ft 477 kts 112°
2026-04-20 03:05 25.92988 -101.99463 36163 ft 476 kts 112°
2026-04-20 03:05 25.91762 -101.96016 35287 ft 481 kts 112°
2026-04-20 03:05 25.90527 -101.92554 34532 ft 483 kts 112°
2026-04-20 03:06 25.89286 -101.89074 33765 ft 484 kts 112°
2026-04-20 03:06 25.88041 -101.85579 32989 ft 486 kts 112°
2026-04-20 03:06 25.86788 -101.82075 32191 ft 487 kts 112°
2026-04-20 03:06 25.85545 -101.78614 31369 ft 489 kts 112°
2026-04-20 03:07 25.84283 -101.75089 30511 ft 491 kts 112°
2026-04-20 03:07 25.83022 -101.71554 29629 ft 492 kts 112°
2026-04-20 03:07 25.81761 -101.68015 28841 ft 492 kts 112°
2026-04-20 03:07 25.80497 -101.64479 28343 ft 492 kts 112°
2026-04-20 03:08 25.79243 -101.60997 28113 ft 494 kts 113°
2026-04-20 03:08 25.76676 -101.53878 28024 ft 498 kts 112°
2026-04-20 03:09 25.74112 -101.46749 28012 ft 497 kts 113°
2026-04-20 03:09 25.71548 -101.39638 28008 ft 498 kts 113°
2026-04-20 03:10 25.68964 -101.32484 28006 ft 498 kts 113°
2026-04-20 03:10 25.66402 -101.25405 28005 ft 498 kts 113°
2026-04-20 03:11 25.63816 -101.18288 28005 ft 497 kts 113°
2026-04-20 03:11 25.61238 -101.11175 28005 ft 498 kts 113°
2026-04-20 03:12 25.58650 -101.04061 28005 ft 497 kts 113°
2026-04-20 03:12 25.57357 -101.00517 27963 ft 494 kts 113°
2026-04-20 03:12 25.56251 -100.97490 27779 ft 481 kts 113°
2026-04-20 03:12 25.55288 -100.94632 27491 ft 467 kts 108°
2026-04-20 03:13 25.54626 -100.91166 27087 ft 453 kts 96°
2026-04-20 03:13 25.54513 -100.87738 26831 ft 437 kts 89°
2026-04-20 03:13 25.54576 -100.84483 26625 ft 422 kts 88°
2026-04-20 03:13 25.54678 -100.81279 26391 ft 408 kts 88°
2026-04-20 03:14 25.54754 -100.78187 26161 ft 394 kts 89°
2026-04-20 03:14 25.54784 -100.75202 25953 ft 381 kts 90°
2026-04-20 03:14 25.54786 -100.72307 25655 ft 372 kts 90°
2026-04-20 03:14 25.54784 -100.69456 25188 ft 368 kts 90°
2026-04-20 03:15 25.54793 -100.66639 24717 ft 364 kts 89°
2026-04-20 03:15 25.54814 -100.63835 24251 ft 361 kts 89°
2026-04-20 03:15 25.54836 -100.61103 23799 ft 358 kts 90°
2026-04-20 03:15 25.54587 -100.58371 23336 ft 354 kts 101°
2026-04-20 03:16 25.54010 -100.55742 22884 ft 350 kts 110°
2026-04-20 03:16 25.53143 -100.53238 22443 ft 346 kts 114°
2026-04-20 03:16 25.52194 -100.50808 22007 ft 343 kts 115°
2026-04-20 03:16 25.51129 -100.48456 21570 ft 338 kts 122°
2026-04-20 03:17 25.49906 -100.46250 21149 ft 335 kts 125°
2026-04-20 03:17 25.48657 -100.44129 20739 ft 331 kts 126°
2026-04-20 03:17 25.47372 -100.41998 20377 ft 325 kts 129°
2026-04-20 03:17 25.45889 -100.40203 19955 ft 317 kts 141°
2026-04-20 03:18 25.44214 -100.38639 19515 ft 314 kts 144°
2026-04-20 03:18 25.42509 -100.37152 19068 ft 311 kts 146°
2026-04-20 03:18 25.40756 -100.35771 18619 ft 307 kts 152°
2026-04-20 03:18 25.38917 -100.34587 18174 ft 303 kts 155°
2026-04-20 03:19 25.37084 -100.33439 17727 ft 302 kts 150°
2026-04-20 03:19 25.35362 -100.32103 17273 ft 302 kts 146°
2026-04-20 03:19 25.33685 -100.30680 16716 ft 305 kts 145°
2026-04-20 03:19 25.32018 -100.29227 16241 ft 305 kts 145°
2026-04-20 03:20 25.30385 -100.27794 15821 ft 302 kts 144°
2026-04-20 03:20 25.28885 -100.26166 15367 ft 304 kts 131°
2026-04-20 03:20 25.27620 -100.24291 14923 ft 304 kts 127°
2026-04-20 03:20 25.26426 -100.22365 14473 ft 303 kts 126°
2026-04-20 03:21 25.25261 -100.20435 14028 ft 301 kts 126°
2026-04-20 03:21 25.24134 -100.18516 13742 ft 294 kts 121°
2026-04-20 03:21 25.23332 -100.16468 13524 ft 286 kts 110°
2026-04-20 03:21 25.22715 -100.14399 13238 ft 280 kts 108°
2026-04-20 03:22 25.22152 -100.12353 12871 ft 278 kts 108°
2026-04-20 03:22 25.21576 -100.10320 12493 ft 276 kts 112°
2026-04-20 03:22 25.20870 -100.08386 12121 ft 274 kts 115°
2026-04-20 03:22 25.20109 -100.06463 11744 ft 272 kts 116°
2026-04-20 03:23 25.19522 -100.04487 11348 ft 272 kts 97°
2026-04-20 03:23 25.19465 -100.02402 10977 ft 270 kts 88°
2026-04-20 03:23 25.19559 -100.00340 10632 ft 267 kts 85°
2026-04-20 03:23 25.19905 -99.98356 10297 ft 261 kts 69°
2026-04-20 03:24 25.20537 -99.96491 9979 ft 256 kts 64°
2026-04-20 03:24 25.21451 -99.94853 9635 ft 248 kts 41°
2026-04-20 03:24 25.22884 -99.93889 9279 ft 239 kts 14°
2026-04-20 03:24 25.24503 -99.93549 8910 ft 236 kts
2026-04-20 03:25 25.26138 -99.93321 8509 ft 236 kts
2026-04-20 03:25 25.27757 -99.93011 8094 ft 236 kts 11°
2026-04-20 03:25 25.29347 -99.92638 7686 ft 237 kts 12°
2026-04-20 03:25 25.30960 -99.92269 7508 ft 237 kts 11°
2026-04-20 03:26 25.32589 -99.91934 7500 ft 238 kts 10°
2026-04-20 03:26 25.34200 -99.91606 7463 ft 230 kts 11°
2026-04-20 03:26 25.35756 -99.91274 7256 ft 226 kts 11°
2026-04-20 03:26 25.37266 -99.90945 7013 ft 222 kts 11°
2026-04-20 03:27 25.38813 -99.90654 6654 ft 223 kts
2026-04-20 03:27 25.39837 -99.90602 6437 ft 222 kts